• In Spain
  • List of Countries
  • For 7 days
  • Water Temperature
  • Satellite Maps
  • Weather Map
  • Weather Widgets
  • user-avatar
    Login

    Hourly Weather Rudy

    Today, 20 September, Thursday

    Time Temperature Precipitation Wind Pressure Humidity
    00:00 +20°C° 0 mm 2 mps 759 mmHg 63%
    01:00 +20°C° 0 mm 2 mps 758 mmHg 66%
    02:00 +20°C° 0 mm 2 mps 759 mmHg 68%
    03:00 +20°C° 0 mm 2 mps 759 mmHg 69%
    04:00 +19°C° 0 mm 3 mps 759 mmHg 71%
    05:00 +20°C° 0 mm 3 mps 759 mmHg 70%
    06:00 +20°C° 0 mm 3 mps 759 mmHg 69%
    07:00 +21°C° 0 mm 2 mps 759 mmHg 65%
    08:00 +24°C° 0 mm 3 mps 759 mmHg 59%
    09:00 +25°C° 0 mm 3 mps 759 mmHg 54%
    10:00 +27°C° 0 mm 3 mps 759 mmHg 49%
    11:00 +28°C° 0 mm 4 mps 759 mmHg 46%
    12:00 +30°C° 0 mm 4 mps 759 mmHg 44%
    13:00 +32°C° 0 mm 5 mps 758 mmHg 40%
    14:00 +32°C° 0 mm 5 mps 758 mmHg 41%
    15:00 +30°C° 0 mm 4 mps 758 mmHg 42%
    16:00 +30°C° 0 mm 4 mps 757 mmHg 43%
    17:00 +28°C° 0 mm 3 mps 757 mmHg 49%
    18:00 +26°C° 0 mm 2 mps 757 mmHg 54%
    19:00 +25°C° 0 mm 2 mps 757 mmHg 59%
    20:00 +24°C° 0 mm 2 mps 757 mmHg 61%
    21:00 +24°C° 0 mm 2 mps 757 mmHg 62%
    22:00 +22°C° 0 mm 3 mps 757 mmHg 63%
    23:00 +22°C° 0 mm 3 mps 757 mmHg 64%

    Tomorrow, 21 September, Friday

    Time Temperature Precipitation Wind Pressure Humidity
    00:00 +21°C° 0 mm 3 mps 756 mmHg 64%
    01:00 +21°C° 0 mm 3 mps 756 mmHg 64%
    02:00 +21°C° 0 mm 3 mps 756 mmHg 65%
    03:00 +20°C° 0 mm 3 mps 756 mmHg 66%
    04:00 +20°C° 0 mm 3 mps 755 mmHg 67%
    05:00 +20°C° 0 mm 4 mps 755 mmHg 67%
    06:00 +21°C° 0 mm 4 mps 755 mmHg 66%
    07:00 +21°C° 0 mm 4 mps 755 mmHg 66%
    08:00 +23°C° 0 mm 5 mps 755 mmHg 60%
    09:00 +26°C° 0 mm 6 mps 754 mmHg 54%
    10:00 +28°C° 0 mm 6 mps 754 mmHg 48%
    11:00 +28°C° 0 mm 6 mps 753 mmHg 45%
    12:00 +29°C° 0 mm 7 mps 752 mmHg 43%
    13:00 +30°C° 0 mm 7 mps 752 mmHg 40%
    14:00 +30°C° 0 mm 7 mps 751 mmHg 40%
    15:00 +29°C° 0 mm 7 mps 750 mmHg 41%
    16:00 +29°C° 0 mm 7 mps 749 mmHg 41%
    17:00 +28°C° 0.1 mm 7 mps 750 mmHg 44%
    18:00 +26°C° 0.1 mm 7 mps 750 mmHg 47%
    19:00 +24°C° 0.1 mm 7 mps 750 mmHg 50%
    20:00 +21°C° 0.8 mm 7 mps 751 mmHg 60%
    21:00 +17°C° 0.8 mm 7 mps 752 mmHg 69%
    22:00 +14°C° 0.8 mm 7 mps 752 mmHg 78%
    23:00 +14°C° 0.1 mm 6 mps 753 mmHg 76%

    Day after tomorrow, 22 September, Saturday

    Time Temperature Precipitation Wind Pressure Humidity
    00:00 +13°C° 0.1 mm 5 mps 754 mmHg 75%
    01:00 +13°C° 0.1 mm 4 mps 755 mmHg 73%
    02:00 +13°C° 0 mm 5 mps 755 mmHg 72%
    03:00 +12°C° 0 mm 5 mps 756 mmHg 71%
    04:00 +12°C° 0 mm 5 mps 756 mmHg 69%
    05:00 +12°C° 0 mm 5 mps 756 mmHg 68%
    06:00 +11°C° 0 mm 6 mps 756 mmHg 66%
    07:00 +11°C° 0 mm 6 mps 757 mmHg 64%
    08:00 +13°C° 0 mm 6 mps 757 mmHg 60%
    09:00 +14°C° 0 mm 7 mps 757 mmHg 56%
    10:00 +15°C° 0 mm 7 mps 757 mmHg 53%
    11:00 +16°C° 0.1 mm 7 mps 757 mmHg 51%
    12:00 +16°C° 0.1 mm 7 mps 757 mmHg 50%
    13:00 +17°C° 0.1 mm 7 mps 757 mmHg 48%
    14:00 +16°C° 0 mm 7 mps 757 mmHg 49%
    15:00 +16°C° 0 mm 7 mps 757 mmHg 49%
    16:00 +16°C° 0 mm 7 mps 757 mmHg 50%
    17:00 +15°C° 0.1 mm 6 mps 757 mmHg 55%
    18:00 +14°C° 0.1 mm 5 mps 757 mmHg 60%
    19:00 +13°C° 0.1 mm 4 mps 757 mmHg 65%
    20:00 +12°C° 0 mm 4 mps 757 mmHg 66%
    21:00 +12°C° 0 mm 4 mps 757 mmHg 68%
    22:00 +12°C° 0 mm 4 mps 757 mmHg 70%
    23:00 +10°C° 0 mm 5 mps 757 mmHg 70%

    23 September, Sunday

    Time Temperature Precipitation Wind Pressure Humidity
    00:00 +10°C° 0 mm 5 mps 757 mmHg 71%
    01:00 +10°C° 0 mm 5 mps 757 mmHg 71%
    02:00 +9°C° 0 mm 5 mps 758 mmHg 72%
    03:00 +9°C° 0 mm 5 mps 758 mmHg 73%
    04:00 +8°C° 0 mm 5 mps 758 mmHg 74%
    05:00 +8°C° 0 mm 5 mps 758 mmHg 74%
    06:00 +9°C° 0 mm 5 mps 758 mmHg 74%
    07:00 +9°C° 0 mm 5 mps 758 mmHg 73%
    08:00 +10°C° 0 mm 6 mps 758 mmHg 69%
    09:00 +11°C° 0 mm 6 mps 758 mmHg 64%
    10:00 +14°C° 0 mm 6 mps 758 mmHg 59%
    11:00 +14°C° 0 mm 6 mps 758 mmHg 55%
    12:00 +15°C° 0 mm 6 mps 757 mmHg 52%
    13:00 +16°C° 0 mm 6 mps 757 mmHg 49%
    14:00 +15°C° 0 mm 6 mps 757 mmHg 48%
    15:00 +15°C° 0 mm 5 mps 756 mmHg 47%
    16:00 +15°C° 0 mm 4 mps 756 mmHg 47%
    17:00 +14°C° 0.1 mm 4 mps 755 mmHg 53%
    18:00 +13°C° 0.1 mm 3 mps 755 mmHg 59%
    19:00 +13°C° 0.1 mm 2 mps 754 mmHg 65%
    20:00 +13°C° 0.4 mm 2 mps 753 mmHg 70%
    21:00 +12°C° 0.4 mm 2 mps 752 mmHg 76%
    22:00 +12°C° 0.4 mm 2 mps 751 mmHg 81%
    23:00 +10°C° 2.9 mm 3 mps 749 mmHg 84%

    24 September, Monday

    Time Temperature Precipitation Wind Pressure Humidity
    00:00 +9°C° 2.9 mm 5 mps 748 mmHg 87%
    01:00 +8°C° 2.9 mm 6 mps 746 mmHg 91%
    02:00 +8°C° 4.2 mm 7 mps 745 mmHg 91%
    03:00 +8°C° 4.2 mm 7 mps 743 mmHg 91%
    04:00 +6°C° 4.2 mm 8 mps 742 mmHg 91%
    05:00 +6°C° 2.8 mm 9 mps 743 mmHg 90%
    06:00 +6°C° 2.8 mm 9 mps 744 mmHg 88%
    07:00 +6°C° 2.8 mm 10 mps 745 mmHg 87%
    08:00 +7°C° 0.4 mm 10 mps 747 mmHg 80%
    09:00 +10°C° 0.4 mm 9 mps 749 mmHg 74%
    10:00 +11°C° 0.4 mm 9 mps 751 mmHg 67%
    11:00 +11°C° 0.2 mm 9 mps 752 mmHg 63%
    12:00 +12°C° 0.2 mm 10 mps 754 mmHg 60%
    13:00 +12°C° 0.2 mm 10 mps 755 mmHg 56%
    14:00 +12°C° 0.3 mm 9 mps 756 mmHg 58%
    15:00 +11°C° 0.3 mm 8 mps 757 mmHg 59%
    16:00 +11°C° 0.3 mm 7 mps 758 mmHg 60%
    17:00 +10°C° 0 mm 6 mps 759 mmHg 62%
    18:00 +8°C° 0 mm 5 mps 759 mmHg 64%
    19:00 +7°C° 0 mm 4 mps 760 mmHg 66%
    20:00 +7°C° 0 mm 4 mps 761 mmHg 66%
    21:00 +7°C° 0 mm 4 mps 762 mmHg 67%
    22:00 +6°C° 0 mm 4 mps 763 mmHg 68%
    23:00 +6°C° 0 mm 4 mps 763 mmHg 68%

    25 September, Tuesday

    Time Temperature Precipitation Wind Pressure Humidity
    00:00 +6°C° 0 mm 4 mps 764 mmHg 68%
    01:00 +6°C° 0 mm 4 mps 764 mmHg 68%
    02:00 +6°C° 0 mm 4 mps 765 mmHg 68%
    03:00 +6°C° 0 mm 4 mps 766 mmHg 68%
    04:00 +6°C° 0 mm 4 mps 766 mmHg 68%
    05:00 +6°C° 0 mm 5 mps 767 mmHg 67%
    06:00 +6°C° 0 mm 5 mps 767 mmHg 66%
    07:00 +7°C° 0 mm 5 mps 768 mmHg 65%
    08:00 +8°C° 0 mm 5 mps 768 mmHg 57%
    09:00 +10°C° 0 mm 6 mps 769 mmHg 49%
    10:00 +13°C° 0 mm 6 mps 770 mmHg 41%
    11:00 +13°C° 0 mm 6 mps 770 mmHg 41%
    12:00 +14°C° 0 mm 7 mps 770 mmHg 40%
    13:00 +14°C° 0 mm 7 mps 770 mmHg 39%
    14:00 +14°C° 0 mm 7 mps 770 mmHg 42%
    15:00 +14°C° 0 mm 7 mps 769 mmHg 44%
    16:00 +12°C° 0 mm 7 mps 769 mmHg 47%
    17:00 +13°C° 0 mm 6 mps 769 mmHg 52%
    18:00 +11°C° 0 mm 6 mps 769 mmHg 58%
    19:00 +10°C° 0 mm 6 mps 768 mmHg 63%
    20:00 +10°C° 0.2 mm 6 mps 768 mmHg 67%
    21:00 +10°C° 0.2 mm 7 mps 768 mmHg 72%
    22:00 +10°C° 0.2 mm 8 mps 767 mmHg 76%
    23:00 +10°C° 0.4 mm 8 mps 767 mmHg 78%
    Show more